Location: Potomac Astrometric Observatory
(39.0475°N, 77.2064°W)
Time: 06:07:28
(UTC-04:00)

Envisat - Pass Details

Date: 22 March 2019
Orbit: 764 x 766 km, 98.2° (Epoch: 24 April)

Event Time Altitude Azimuth Distance (km) Brightness Sun altitude
Rises 19:36:22 0° 161° (SSE) 3,218 6.0 -3.5°
Reaches altitude 10° 19:38:40 10° 160° (SSE) 2,296 5.2 -3.9°
Maximum altitude 19:43:43 77° 76° (ENE) 791 3.0 -4.9°
Drops below altitude 10° 19:48:48 10° 351° (N) 2,311 5.7 -5.9°
Sets 19:51:07 0° 350° (N) 3,241 6.5 -6.3°
